Regional Weather Roundup
Issued by NWS

Home | Current Version | Previous Version | Graphics & Text | Print | Product List | Glossary On
Versions: 1 2 3 4 5 6 7 8 9 10 11 12 13 14 15 16 17 18 19 20 21 22 23 24 25 26 27 28 29 30 31 32 33 34 35 36 37 38 39 40 41 42 43 44 45 46 47 48 49 50
000
ASUS43 KOAX 302202
RWRNE

WEATHER ROUNDUP FOR NEBRASKA
NATIONAL WEATHER SERVICE OMAHA NE
500 PM CDT TUE JUN 30 2015

NOTES: SATELLITE DATA IS BEING USED TO AUGMENT CLOUD COVER ABOVE
       12000 FEET.
       "FAIR" INDICATES FEW OR NO CLOUDS BELOW 12,000 FEET WITH NO
       SIGNIFICANT WEATHER AND/OR OBSTRUCTIONS TO VISIBILITY.

  * THESE STATIONS DO NOT REPORT WEATHER SUCH AS RAIN...SNOW OR FOG.

NEZ001>004-019>022-054>056-302300-
NEBRASKA PANHANDLE

CITY           SKY/WX    TMP DP  RH WIND       PRES   REMARKS
SCOTTSBLUFF    MOSUNNY   91  54  28 W7        29.93F
ALLIANCE       SUNNY     94  51  23 MISG      29.92F HX  91
CHADRON        MOSUNNY   92  62  36 NW6       29.87F HX  92
KIMBALL          N/A    N/A N/A N/A MISG        N/A
SIDNEY         MOSUNNY   93  55  27 S7        29.98F HX  91
$$

NEZ057>060-069>072-079>082-302300-
SOUTHWEST NEBRASKA

CITY           SKY/WX    TMP DP  RH WIND       PRES   REMARKS
NORTH PLATTE   CLOUDY    95  61  32 SW6       29.86F HX  95
IMPERIAL       SUNNY     95  52  23 SW7       29.90F HX  92
LEXINGTON      CLOUDY    94  59  31 SW3       29.86F HX  93
MCCOOK         MOSUNNY  100  49  17 SW8       29.87F HX  97
$$

NEZ005>010-023>029-035>040-094-302300-
NORTH CENTRAL NEBRASKA

CITY           SKY/WX    TMP DP  RH WIND       PRES   REMARKS
VALENTINE      CLOUDY    84  66  54 E14       29.86F
AINSWORTH      CLOUDY    80  67  63 E13       29.89F
BROKEN BOW     CLOUDY    90  66  45 S6        29.87F HX  92
ORD            CLOUDY    85  69  58 E12       29.85F
$$

NEZ041-046>049-061>064-073>077-083>087-302300-
SOUTH CENTRAL NEBRASKA

CITY           SKY/WX    TMP DP  RH WIND       PRES   REMARKS
GRAND ISLAND   CLOUDY    88  68  51 E14       29.86F HX  91
AURORA         CLOUDY    88  65  47 SE10      29.86F HX  90
HASTINGS       PTSUNNY   94  63  35 S6        29.86F HX  95
KEARNEY *      PTSUNNY   93  57  29 SW8       29.86S HX  92
$$

NEZ011>018-030>034-042>045-302300-
NORTHEAST NEBRASKA

CITY           SKY/WX    TMP DP  RH WIND       PRES   REMARKS
NORFOLK        CLOUDY    75  65  70 E7        29.90F
COLUMBUS *     PTSUNNY  N/A N/A N/A MISG        N/A
FREMONT        CLOUDY    77  64  63 E9        29.91S
TEKAMAH        CLOUDY    74  67  78 CALM      29.89F
$$

NEZ050>053-065>068-078-088>093-302300-
SOUTHEAST NEBRASKA

CITY           SKY/WX    TMP DP  RH WIND       PRES   REMARKS
LINCOLN        CLOUDY    83  64  52 E9        29.88F HAZE
OMAHA EPPLEY   CLOUDY    76  67  73 E5        29.89F
FALLS CITY     CLOUDY    80  67  64 E8        29.88F
NEBRASKA CITY  CLOUDY    78  63  58 E6        29.90S
PLATTSMOUTH    CLOUDY    76  65  69 E5        29.90F
$$

NEZ044-045-051>053-067-302300-
OMAHA AREA

CITY           SKY/WX    TMP DP  RH WIND       PRES   REMARKS
OMAHA EPPLEY   CLOUDY    76  67  73 E5        29.89F
FREMONT        CLOUDY    77  64  63 E9        29.91S
MILLARD        CLOUDY    78  65  65 E3        29.89F
OFFUTT AFB     CLOUDY    77  68  73 E7        29.88F
PLATTSMOUTH    CLOUDY    76  65  69 E5        29.90F
WAHOO          CLOUDY    78  64  63 E6        29.89F
$$


USA.gov is the U.S. government's official web portal to all federal, state and local government web resources and services.